#timestamp,LO_Frequency,Hit 
1500249615.3,286046097.8,N
1500249635.1,286046098.4,N
1500249655.9,286046097.9,N
1500249675.7,286046098.1,N
1500249695.6,286046100.4,N
1500249715.4,286046100.1,N
1500249735.2,286046100.2,N
1500249755.1,286046099.8,N
1500249756.0,286046099.8,N
1500249775.8,286046098.2,N
1500249795.6,286046100.2,N
1500249815.5,286046100.2,N
1500249835.3,286046099.8,N
1500249855.2,286046099.7,N
1500249875.9,286046102.0,N
1500249895.7,286046099.6,N
1500249915.6,286046099.6,N
1500249935.4,286046098.9,N
1500249955.3,286046100.9,N
1500249975.1,286046101.8,N
1500249976.0,286046101.8,N
1500249995.8,286042493.9,N
1500250015.7,286046102.4,N
1500250035.5,286046101.1,N
1500250055.3,286046101.7,N
1500250105.2,286046100.8,Y
1500250115.1,286046530.9,N
1500250135.9,286047000.4,N
1500250155.7,286047000.8,N
1500250175.5,286047001.2,N
1500250195.4,286047000.1,N
1500250215.2,286047002.8,N
1500250235.1,286047001.9,N
1500250236.0,286047001.9,N
1500250255.8,286047002.2,N
1500250275.6,286047002.4,N
1500250295.5,286047002.8,N
1500250315.3,286047000.3,N
1500250335.2,286047000.1,N
1500250355.9,286047002.0,N
1500250375.7,286047001.4,N
1500250395.6,286047004.2,N
1500250415.4,286047002.7,N
1500250435.2,286047001.4,N
1500250455.1,286047002.1,N
1500250456.0,286047002.1,N
1500250475.8,286047002.1,N
1500250495.7,286047001.5,N
1500250515.5,286047004.1,N
1500250535.3,286047004.0,N
1500250555.2,286047001.8,N
1500250575.0,286047003.6,N
1500250575.9,286047003.6,N
1500250595.8,286047001.3,N
1500250615.6,286047005.5,N
1500250635.4,286047003.3,N
1500250655.3,286047005.9,N
1500250675.1,286047005.7,N
1500250695.8,286047004.8,N
1500250715.7,286047005.8,N
1500250735.5,286047003.0,N
1500250755.4,286047005.7,N
1500250775.2,286047005.4,N
1500250795.0,286047006.0,N
1500250795.9,286047006.0,N
1500250815.8,286047003.2,N
1500250835.6,286047005.5,N
1500250855.5,286047005.8,N
1500250875.3,286047003.2,N
1500250895.1,286047003.5,N
1500250915.9,286047005.9,N
1500250935.7,286047003.4,N
1500250955.5,286047005.7,N
1500250975.4,286047006.0,N
1500250995.2,286047005.7,N
1500251015.1,286047003.0,N
1500251016.0,286047003.0,N
1500251035.8,286047004.1,N
1500251055.6,286047003.2,N
1500251075.5,286047005.7,N
1500251095.3,286047005.3,N
1500251115.2,286047005.4,N
1500251135.9,286047004.9,N
1500251155.7,286047004.8,N
1500251175.6,286047005.5,N
1500251195.4,286047004.2,N
1500251215.2,286047003.8,N
1500251235.1,286047003.3,N
1500251236.0,286047003.3,N
1500251255.8,286047007.5,N
1500251275.7,286047005.3,N
1500251295.5,286047005.4,N
1500251315.3,286047005.2,N
1500251335.2,286047005.0,N
1500251355.0,286047007.3,N
1500251355.9,286047007.3,N
1500251375.7,286047007.5,N
1500251395.6,286047007.2,N
1500251415.4,286047004.5,N
1500251435.3,286047007.2,N
1500251455.1,286047004.8,N
1500251456.0,286047004.8,N
1500251475.8,286047004.5,N
1500251495.7,286047005.4,N
1500251515.5,286047007.5,N
1500251535.3,286047004.5,N
1500251555.2,286047007.2,N
1500251575.0,286047006.5,N
1500251575.9,286047006.5,N
1500251595.8,286047008.8,N
1500251615.6,286047006.5,N
1500251635.4,286047007.3,N
1500251655.3,286047006.4,N
1500251675.1,286047007.4,N
1500251695.9,286047004.9,N
1500251715.7,286047005.0,N
1500251735.5,286047007.1,N
1500251755.4,286047006.8,N
1500251775.2,286047004.9,N
1500251795.0,286047007.4,N
1500251795.9,286047007.4,N
1500251815.8,286047008.8,N
1500251835.6,286047009.1,N
1500251855.5,286047006.9,N
1500251875.3,286047007.3,N
1500251895.1,286047005.0,N
1500251915.9,286047007.6,N
1500251935.7,286047004.6,N
1500251955.5,286047005.2,N
1500251975.4,286047004.8,N
1500251995.2,286047004.6,N
1500252015.1,286047007.2,N
1500252016.0,286047007.2,N
1500252035.8,286047006.6,N
1500252055.6,286047008.4,N
1500252075.5,286047009.2,N
1500252095.3,286047006.8,N
1500252115.2,286047006.5,N
1500252135.9,286047008.6,N
1500252155.7,286047006.1,N
1500252175.6,286047006.2,N
1500252195.4,286047009.2,N
1500252215.2,286047007.1,N
1500252235.1,286047007.3,N
1500252236.0,286047007.3,N
1500252255.8,286047007.0,N
1500252275.7,286047006.7,N
1500252295.5,286047006.6,N
1500252315.3,286047009.1,N
1500252335.2,286047006.6,N
1500252355.0,286047006.9,N
1500252355.9,286047006.9,N
1500252375.8,286047006.8,N
1500252395.6,286047006.8,N
1500252415.4,286047006.9,N
1500252435.3,286047007.5,N
1500252455.1,286047007.2,N
1500252475.9,286047007.3,N
1500252495.7,286047006.8,N
1500252515.5,286047007.6,N
1500252535.4,286047007.1,N
1500252555.2,286047004.5,N
1500252575.1,286047004.9,N
1500252576.0,286047004.9,N
1500252595.8,286047007.2,N
1500252615.6,286047006.2,N
1500252635.5,286047006.3,N
1500252655.3,286047006.3,N
1500252675.1,286047006.3,N
1500252695.9,286047008.8,N
1500252715.7,286047006.3,N
1500252735.6,286047009.2,N
1500252755.4,286047008.9,N
1500252775.2,286047010.7,N
1500252795.1,286047008.3,N
1500252796.0,286047008.3,N
1500252815.8,286047006.2,N
1500252835.6,286047006.6,N
1500252855.5,286047007.1,N
1500252875.3,286047006.2,N
1500252895.2,286047008.8,N
1500252915.9,286047006.5,N
1500252935.7,286047006.5,N
1500252955.6,286047007.0,N
1500252975.4,286047006.5,N
1500252995.2,286047008.6,N
1500253015.1,286047006.4,N
1500253016.0,286047006.4,N
1500253035.8,286047007.0,N
1500253055.7,286047006.4,N
1500253075.5,286047008.7,N
1500253095.3,286047008.3,N
1500253115.2,286047009.1,N
1500253135.0,286047006.7,N
1500253135.9,286047006.7,N
1500253155.8,286047009.0,N
1500253175.6,286047008.3,N
1500253195.4,286047007.9,N
